Вернуться в каталог

COSMOS 794

АктивенВоенныеLEO
NORAD 8610·PAYLOAD·🇷🇺 Russia

Запущен Jan 28, 1976 с Plesetsk Cosmodrome

Loading…

Ближайшие Пролёты (ближайшие 24 часа)

TLE

СвежийSource: Space-Track

Эпоха: Sep 14, 2026, 15:44 UTC

1 08610U 76008D   26257.65607119  .00000002  00000-0  11972-3 0  9998
2 08610  74.0579 329.1154 0026070 123.9415  30.1484 12.48158399306856

Отслеживайте COSMOS 794 в реальном времени с AllMySat

Download on the App Store